[[{"header":{"parameterUnit":"m.s-1","parameterCategory":1,"la1":30.2991,"la2":30.254,"lo1":-89.0895,"lo2":-89.0444,"dy":0.0017,"dx":0.0017,"nx":28,"ny":28,"refTime":"2024-10-18T03:00:00:Z","depth":0,"parameterNumber":2,"parameterNumberName":"U-component_of_WINDS"},"data":[0,0,0,0,0,0,0,0,0,0,0,0,0,0,0,0,0,0,0,0,0,0,0,0,0,0,0,0,0,0,0,0,0,0,0,0,0,0,0,0,0,0,0,0,0,0,0,0,0,0,0,0,0,0,0,0,0,0,-5.298,-5.2981,0,-5.3046,-5.3046,-5.3047,-5.2933,-5.2929,-5.2925,-5.2921,-5.299,-5.2995,-5.3001,0,0,0,0,0,0,0,0,0,0,0,0,0,-5.2758,-5.2762,-5.298,-5.2981,-5.2982,-5.3046,-5.3046,-5.3047,-5.2933,-5.2928,-5.2924,-5.2919,-5.2988,-5.2995,-5.3001,0,0,0,0,0,0,0,0,0,0,0,0,0,-5.2842,-5.2764,-5.298,-5.2932,-5.2929,-5.3045,-5.3047,-5.3048,-5.2934,-5.2928,-5.2923,-5.2917,-5.2986,-5.2994,-5.3002,-5.3169,0,0,-5.3027,-5.3031,0,0,0,0,0,0,0,0,-5.2837,-5.285,-5.2939,-5.2936,-5.2932,-5.2975,-5.2993,-5.3088,-5.2936,-5.2932,-5.2921,-5.2914,-5.299,-5.2997,-5.3022,-5.3172,-5.3175,-5.3028,-5.3033,-5.3036,-5.3039,0,0,0,0,0,0,0,-5.2832,-5.2847,-5.3006,-5.294,-5.2936,-5.2908,-5.2914,-5.3011,-5.2993,-5.2932,-5.2924,-5.2933,-5.2987,-5.3015,-5.3023,-5.3176,-5.3028,-5.3035,-5.304,-5.3043,-5.3467,-5.3473,0,0,0,0,0,0,-5.2831,-5.2843,-5.3004,-5.3008,-5.2869,-5.2917,-5.2923,-5.2967,-5.2991,-5.299,-5.2938,-5.2928,-5.3004,-5.3014,-5.3025,-5.3223,-5.3036,-5.3044,-5.3049,-5.3461,-5.3468,-5.3475,0,0,0,0,0,0,-5.2827,-5.2847,-5.3001,-5.2923,-5.2941,-5.2927,-5.2977,-5.2971,-5.2999,-5.2996,-5.2992,-5.297,-5.3,-5.3014,-5.3134,-5.3224,-5.3048,-5.3055,-5.3453,-5.3463,-5.3472,-5.362,0,0,0,0,0,0,-5.2821,-5.2846,-5.2909,-5.2925,-5.2945,-5.3109,-5.2983,-5.2977,-5.3013,-5.3,-5.3025,-5.3023,-5.2996,-5.3123,-5.3142,-5.3232,-5.3061,-5.3445,-5.3457,-5.3469,-5.3607,-5.3633,-5.3656,0,0,0,0,0,-5.2814,-5.2948,-5.2913,-5.2933,-5.3023,-5.3114,-5.3126,-5.3091,-5.3021,-5.3084,-5.3082,-5.3022,-5.3211,-5.3136,-5.3157,-5.3251,-5.3439,-5.3454,-5.3468,-5.3596,-5.3628,-5.3655,0,0,0,0,0,0,-5.2942,-5.2949,-5.291,-5.3053,-5.3084,-5.3095,-5.3174,-5.3126,-5.3178,-5.3164,-5.3119,-5.3126,-5.3256,-5.3265,-5.3181,-5.3414,-5.3313,-5.3332,-5.3403,-5.3434,-5.3458,-5.3454,-5.3068,0,0,0,0,0,-5.2987,-5.306,-5.3062,-5.3189,-5.3206,-5.3188,-5.3226,-5.3197,-5.3227,-5.324,-5.3246,-5.3279,-5.3345,-5.3389,-5.345,-5.3607,-5.3612,-5.3682,-5.3706,-5.3726,-5.3744,-5.383,-5.3861,-5.3522,-5.3522,-5.3522,0,0,-5.3081,-5.3094,-5.3143,-5.3215,-5.3235,-5.3313,-5.3199,-5.3285,-5.3343,-5.3253,-5.3367,-5.3373,-5.3406,-5.3546,-5.3608,-5.3558,-5.3839,-5.3745,-5.3761,-5.3768,-5.3848,-5.388,-5.3908,-5.3532,-5.353,-5.3529,0,0,-5.3292,-5.3309,-5.3416,-5.3439,-5.3471,-5.3458,-5.3484,-5.3503,-5.3503,-5.3617,-5.3552,-5.3619,-5.3734,-5.3761,-5.3789,-5.4012,-5.3959,-5.4032,-5.4161,-5.4245,-5.4271,-5.4295,-5.4376,-5.4405,-5.405,-5.405,-5.405,0,-5.3405,-5.3518,-5.3478,-5.3569,-5.3604,-5.3525,-5.3635,-5.3659,-5.371,-5.3736,-5.3678,-5.3822,-5.3838,-5.3984,-5.4038,-5.4064,-5.4093,-5.403,-5.4271,-5.4294,-5.4315,-5.4392,-5.4422,-5.4059,-5.4058,-5.4057,-5.4056,0,-5.3656,-5.3736,-5.3819,-5.3871,-5.3914,-5.4014,-5.399,-5.4039,-5.4006,-5.3999,-5.4117,-5.4134,-5.4198,-5.423,-5.4199,-5.4372,-5.434,-5.4278,-5.4176,-5.4357,-5.4429,-5.4457,-5.4072,-5.4068,-5.4066,-5.4064,0,0,-5.3951,-5.3978,-5.401,-5.4033,-5.4063,-5.4124,-5.4221,-5.4283,-5.4327,-5.4364,-5.4445,-5.4545,-5.4487,-5.452,-5.4491,-5.4564,-5.4742,-5.4493,-5.4493,-5.454,-5.4936,-5.4984,-5.5019,-5.4706,-5.4712,-5.4716,-5.4934,0,-5.4161,-5.4328,-5.4295,-5.4459,-5.4533,-5.446,-5.4544,-5.4573,-5.4569,-5.4632,-5.4628,-5.47,-5.4617,-5.4637,-5.4706,-5.4705,-5.4821,-5.4689,-5.4783,-5.4787,-5.4779,-5.5056,-5.5106,-5.5311,-5.4961,-5.4966,-5.4969,0,-5.443,-5.4478,-5.4649,-5.4669,-5.4699,-5.4775,-5.483,-5.489,-5.4921,-5.4914,-5.4951,-5.4908,-5.5006,-5.4902,-5.5036,-5.4948,-5.4984,-5.499,-5.4997,-5.5005,-5.489,-5.5074,-5.5375,-5.5407,-5.5012,-5.5009,-5.5006,0,-5.463,-5.4737,-5.4854,-5.4875,-5.49,-5.4956,-5.497,-5.4994,-5.5034,-5.5082,-5.5108,-5.5167,-5.5199,-5.5246,-5.5221,-5.5148,-5.5361,-5.5255,-5.5359,-5.536,-5.5409,-5.5406,-5.5722,-5.543,-5.5429,-5.5429,-5.5428,0,-5.487,-5.4978,-5.4944,-5.5016,-5.5135,-5.5096,-5.5216,-5.522,-5.5243,-5.5316,-5.5255,-5.5325,-5.5287,-5.5353,-5.5334,-5.545,-5.5465,-5.5462,-5.5456,-5.5469,-5.5469,-5.5493,-5.5479,-5.5437,-5.5435,-5.5433,-5.5432,0,-5.5114,-5.5095,-5.5218,-5.5232,-5.5238,-5.5325,-5.5337,-5.5405,-5.5397,-5.5489,-5.5509,-5.5497,-5.5572,-5.5551,-5.5633,-5.562,-5.5767,-5.5742,-5.5757,-5.5751,-5.5857,-5.5849,-5.6201,-5.6246,-5.5923,-5.5926,-5.5929,0,-5.5269,-5.535,-5.5373,-5.5417,-5.5435,-5.5506,-5.5546,-5.5511,-5.5556,-5.5598,-5.5661,-5.5731,-5.5786,-5.591,-5.5909,-5.5972,-5.5949,-5.6068,-5.5958,-5.5969,-5.5953,-5.5949,-5.5958,-5.6091,-5.6095,-5.6098,-5.61,0,-5.5547,-5.5534,-5.5594,-5.5652,-5.5702,-5.5746,-5.5784,-5.5824,-5.5791,-5.5845,-5.5921,-5.5963,-5.6047,-5.6118,-5.6176,-5.619,-5.6141,-5.6135,-5.6162,-5.6177,-5.6183,-5.6183,-5.5819,-5.6127,-5.6124,-5.6122,-5.6121,-5.612,-5.5752,-5.5822,-5.5849,-5.5918,-5.5944,-5.5981,-5.6046,-5.6046,-5.6109,-5.6174,-5.615,-5.6238,-5.6268,-5.634,-5.6362,-5.6431,-5.6385,-5.6425,-5.6436,-5.6447,-5.6461,-5.6171,-5.6441,-5.644,-5.6439,-5.6439,-5.6438,0,-5.6028,-5.6042,-5.6107,-5.6162,-5.6218,-5.6165,-5.6205,-5.6255,-5.6334,-5.6365,-5.642,-5.6509,-5.6578,-5.6582,-5.6647,-5.6702,-5.6681,-5.672,-5.6717,-5.6721,-5.6497,-5.6467,-5.6736,-5.6736,-5.6736,-5.6736,-5.6736,-5.6736,-5.6179,-5.6294,-5.6285,-5.6413,-5.6426,-5.6512,-5.6539,-5.6574,-5.6599,-5.6701,-5.6758,-5.676,-5.6781,-5.6847,-5.6909,-5.6908,-5.6936,-5.6984,-5.6976,-5.6766,-5.6737,-5.6709,-5.668,-5.699,-5.699,-5.7195,-5.7197,-5.7198]},{"header":{"parameterUnit":"m.s-1","parameterCategory":1,"la1":30.2991,"la2":30.254,"lo1":-89.0895,"lo2":-89.0444,"dy":0.0017,"dx":0.0017,"nx":28,"ny":28,"refTime":"2024-10-18T03:00:00:Z","depth":0,"parameterNumber":3,"parameterNumberName":"V-component_of_WINDS"},"data":[0,0,0,0,0,0,0,0,0,0,0,0,0,0,0,0,0,0,0,0,0,0,0,0,0,0,0,0,0,0,0,0,0,0,0,0,0,0,0,0,0,0,0,0,0,0,0,0,0,0,0,0,0,0,0,0,0,0,-2.9413,-2.9413,0,-2.937,-2.937,-2.9369,-2.9291,-2.9289,-2.9288,-2.9286,-2.9244,-2.9244,-2.9244,0,0,0,0,0,0,0,0,0,0,0,0,0,-2.9429,-2.9429,-2.9413,-2.9413,-2.9412,-2.937,-2.937,-2.9369,-2.9291,-2.9289,-2.9287,-2.9285,-2.9244,-2.9244,-2.9244,0,0,0,0,0,0,0,0,0,0,0,0,0,-2.9408,-2.9429,-2.9414,-2.9368,-2.9364,-2.9371,-2.937,-2.9369,-2.9291,-2.9289,-2.9287,-2.9285,-2.9243,-2.9244,-2.9244,-2.9292,0,0,-2.9246,-2.9246,0,0,0,0,0,0,0,0,-2.9409,-2.9407,-2.9375,-2.9371,-2.9366,-2.9333,-2.9359,-2.9343,-2.9292,-2.9319,-2.9286,-2.9283,-2.9275,-2.9273,-2.927,-2.929,-2.9289,-2.9246,-2.9246,-2.9246,-2.9246,0,0,0,0,0,0,0,-2.941,-2.9408,-2.9396,-2.9375,-2.9369,-2.935,-2.9345,-2.9356,-2.9311,-2.9316,-2.931,-2.9306,-2.9273,-2.927,-2.9268,-2.9288,-2.9246,-2.9246,-2.9246,-2.9246,-2.9344,-2.9347,0,0,0,0,0,0,-2.9418,-2.941,-2.9398,-2.9395,-2.9382,-2.9352,-2.9346,-2.9346,-2.931,-2.9302,-2.9308,-2.9303,-2.927,-2.9268,-2.9267,-2.932,-2.9246,-2.9246,-2.9247,-2.9342,-2.9345,-2.9348,0,0,0,0,0,0,-2.9419,-2.9418,-2.94,-2.9401,-2.9397,-2.9354,-2.9355,-2.9347,-2.9344,-2.9304,-2.9296,-2.9314,-2.9268,-2.9266,-2.9286,-2.9317,-2.9247,-2.9247,-2.9339,-2.9343,-2.9346,-2.9428,0,0,0,0,0,0,-2.942,-2.9419,-2.9436,-2.9402,-2.9397,-2.942,-2.9357,-2.9347,-2.9345,-2.9337,-2.9307,-2.93,-2.9266,-2.9286,-2.9287,-2.9317,-2.9247,-2.9336,-2.9341,-2.9345,-2.9422,-2.9433,-2.9443,0,0,0,0,0,-2.9421,-2.9462,-2.9438,-2.9437,-2.9419,-2.9422,-2.9419,-2.9379,-2.9347,-2.9365,-2.9339,-2.9301,-2.9314,-2.9289,-2.9289,-2.932,-2.9334,-2.934,-2.9345,-2.9417,-2.9431,-2.9443,0,0,0,0,0,0,-2.9502,-2.9456,-2.9429,-2.9461,-2.9446,-2.9409,-2.9429,-2.9396,-2.939,-2.9383,-2.9334,-2.9328,-2.9355,-2.9339,-2.9312,-2.9364,-2.9318,-2.9324,-2.9373,-2.9386,-2.9396,-2.94,-2.9248,0,0,0,0,0,-2.9523,-2.9529,-2.9489,-2.9521,-2.9514,-2.9474,-2.9473,-2.9444,-2.9426,-2.942,-2.9396,-2.9381,-2.9381,-2.9383,-2.9381,-2.9419,-2.9411,-2.944,-2.9451,-2.946,-2.9465,-2.9483,-2.9496,-2.9365,-2.9365,-2.9365,0,0,-2.9568,-2.9544,-2.9551,-2.9536,-2.9521,-2.9529,-2.9469,-2.9479,-2.9484,-2.9422,-2.9439,-2.9421,-2.9401,-2.943,-2.9441,-2.9418,-2.95,-2.9467,-2.9474,-2.9475,-2.949,-2.9503,-2.9514,-2.9368,-2.9368,-2.9367,0,0,-2.9653,-2.9635,-2.9659,-2.9645,-2.9622,-2.9595,-2.96,-2.9568,-2.9553,-2.957,-2.9523,-2.9528,-2.953,-2.9517,-2.9511,-2.959,-2.9555,-2.9591,-2.9647,-2.9666,-2.9676,-2.9685,-2.9713,-2.9723,-2.9597,-2.9597,-2.9597,0,-2.9711,-2.972,-2.9676,-2.9689,-2.9684,-2.9626,-2.965,-2.9639,-2.9617,-2.9615,-2.9589,-2.9589,-2.9572,-2.9597,-2.9616,-2.9613,-2.9618,-2.9595,-2.9678,-2.9686,-2.9694,-2.972,-2.9731,-2.9601,-2.9601,-2.9601,-2.96,0,-2.9793,-2.98,-2.9822,-2.9801,-2.9799,-2.9817,-2.9776,-2.9778,-2.9749,-2.9724,-2.9741,-2.9718,-2.971,-2.9714,-2.9685,-2.9735,-2.972,-2.9687,-2.964,-2.9712,-2.9735,-2.9745,-2.9608,-2.9606,-2.9605,-2.9604,0,0,-2.9929,-2.9883,-2.9891,-2.9881,-2.9852,-2.9856,-2.9872,-2.9863,-2.9867,-2.9853,-2.9865,-2.9868,-2.9836,-2.9829,-2.9799,-2.9815,-2.9878,-2.9779,-2.9777,-2.9798,-2.993,-2.9956,-2.9968,-2.9854,-2.9856,-2.9857,-2.9932,0,-3.0007,-3.0031,-2.9991,-3.0024,-3.0029,-2.9975,-2.9988,-2.9972,-2.9949,-2.995,-2.9924,-2.9927,-2.9885,-2.988,-2.9894,-2.9868,-2.9904,-2.9862,-2.9865,-2.9865,-2.9872,-2.9981,-3.0008,-3.008,-2.9941,-2.9942,-2.9943,0,-3.0102,-3.0093,-3.0126,-3.0094,-3.0094,-3.0107,-3.0096,-3.0098,-3.0078,-3.006,-3.0052,-3.0015,-3.0028,-2.9983,-3.0,-2.9972,-2.9971,-2.9958,-2.996,-2.9959,-2.9909,-2.9982,-3.0101,-3.0112,-2.9958,-2.9956,-2.9955,0,-3.0197,-3.0193,-3.0212,-3.0205,-3.0168,-3.0178,-3.0163,-3.0141,-3.0138,-3.0128,-3.0126,-3.0118,-3.0114,-3.0108,-3.0071,-3.0041,-3.0092,-3.0044,-3.0078,-3.0079,-3.0091,-3.0091,-3.0212,-3.0091,-3.0091,-3.009,-3.009,0,-3.0289,-3.0312,-3.0254,-3.0266,-3.029,-3.0244,-3.0268,-3.0248,-3.0228,-3.0235,-3.0187,-3.0195,-3.0144,-3.0147,-3.0117,-3.0135,-3.0134,-3.012,-3.0112,-3.0124,-3.0126,-3.0123,-3.0117,-3.0093,-3.0093,-3.0092,-3.0092,0,-3.04,-3.0362,-3.0379,-3.0342,-3.0333,-3.0352,-3.0321,-3.033,-3.0303,-3.0313,-3.0312,-3.0271,-3.0271,-3.0232,-3.0225,-3.0205,-3.0236,-3.0219,-3.0243,-3.0237,-3.0273,-3.027,-3.0396,-3.041,-3.028,-3.0282,-3.0283,0,-3.0461,-3.0477,-3.0441,-3.0442,-3.0429,-3.0431,-3.0428,-3.0383,-3.0381,-3.0359,-3.0371,-3.0367,-3.0361,-3.0363,-3.0333,-3.0326,-3.0308,-3.0353,-3.0307,-3.0319,-3.0309,-3.0308,-3.031,-3.0363,-3.0365,-3.0366,-3.0367,0,-3.0573,-3.0554,-3.055,-3.054,-3.0538,-3.0528,-3.0515,-3.0518,-3.0469,-3.047,-3.0468,-3.0464,-3.0455,-3.0452,-3.0439,-3.0424,-3.0388,-3.0381,-3.0389,-3.0402,-3.0415,-3.0408,-3.0269,-3.0379,-3.0378,-3.0377,-3.0376,-3.0376,-3.0661,-3.0672,-3.0648,-3.0646,-3.0631,-3.062,-3.0627,-3.0601,-3.0599,-3.0588,-3.0561,-3.0565,-3.0543,-3.0523,-3.051,-3.0512,-3.049,-3.0501,-3.0503,-3.0507,-3.0514,-3.0415,-3.051,-3.0509,-3.0509,-3.0509,-3.0508,0,-3.077,-3.0752,-3.075,-3.0733,-3.0732,-3.0696,-3.068,-3.0681,-3.0684,-3.0667,-3.0662,-3.066,-3.0656,-3.0625,-3.0617,-3.0625,-3.0608,-3.0624,-3.0623,-3.062,-3.0534,-3.0528,-3.0638,-3.0638,-3.0638,-3.0638,-3.0638,-3.0638,-3.0827,-3.0844,-3.0822,-3.0831,-3.0812,-3.0814,-3.0808,-3.0798,-3.0783,-3.0784,-3.078,-3.0759,-3.0736,-3.0726,-3.0721,-3.0711,-3.0711,-3.0733,-3.0719,-3.0639,-3.0626,-3.0614,-3.0609,-3.0733,-3.0734,-3.0804,-3.0805,-3.0805]}]]